Hoonah, AK

12:20 AM AKST on February 24, 2017 (GMT -0900)
Hoonah

Weather History for PAOH - December, 2012

Change the Weather History Date:

Wednesday, December 12, 2012

  Actual Average Record
Temperature  
Mean Temperature 29 °F -  
Max Temperature 37 °F 33 °F 44 °F (2002)
Min Temperature 21 °F 28 °F 19 °F (2008)
Degree Days  
Heating Degree Days 36    
Moisture  
Dew Point 30 °F    
Average Humidity 99    
Maximum Humidity 100    
Minimum Humidity 93    
Precipitation  
Precipitation 0.01 in - - ()
Sea Level Pressure  
Sea Level Pressure 29.62 in    
Wind  
Wind Speed 2 mph (East)    
Max Wind Speed 13 mph    
Max Gust Speed -    
Visibility 10 miles    
Events Rain    
Averages and records for this station are not official NWS values.
T = Trace of Precipitation, MM = Missing Value Source: NWS Daily Summary

Daily Weather History Graph

Daily Weather History Graph

Search for Another Location

Airport or City:

Trip Planner

Search our weather history database for the weather conditions in past years. The results will help you decide how hot, cold, wet, or windy it might be!

Date:

Astronomy

Dec. 12, 2012 Rise Set
Actual Time 8:39 AM AKST 3:11 PM AKST
Civil Twilight 7:48 AM AKST 4:03 PM AKST
Nautical Twilight 6:55 AM AKST 4:55 PM AKST
Astronomical Twilight 6:07 AM AKST 5:44 PM AKST
Moon 7:47 AM AKST (12/12) 3:00 PM AKST (12/12)
Length of Visible Light 8h 15m
Length of Day
6h 31m
Waning Crescent, 0% of the Moon is Illuminated
Dec 12
Waning Crescent
Dec 12
New
Dec 19
First Quarter
Dec 28
Full
Jan 4
Last Quarter

Hourly Weather History & Observations

Time (AKST) Temp. Windchill Dew Point Humidity Pressure Visibility Wind Dir Wind Speed Gust Speed Precip Events Conditions
12:56 AM 22.1 °F - 21.0 °F 96% 29.89 in 10.0 mi Calm Calm - N/A   Clear
1:56 AM 21.0 °F - 21.0 °F 100% 29.87 in 10.0 mi Calm Calm - N/A   Clear
2:56 AM 24.1 °F - 23.0 °F 96% 29.86 in 10.0 mi Calm Calm - N/A   Overcast
3:56 AM 25.2 °F - 25.2 °F 100% 29.85 in 10.0 mi Calm Calm - 0.00 in   Overcast
4:56 AM 25.2 °F - 25.2 °F 100% 29.83 in 10.0 mi Calm Calm - N/A   Overcast
5:56 AM 26.1 °F - 26.1 °F 100% 29.81 in 10.0 mi Calm Calm - N/A   Overcast
6:56 AM 28.0 °F - 28.0 °F 100% 29.79 in 10.0 mi Calm Calm - N/A   Overcast
7:28 AM 26.6 °F 22.6 °F 26.6 °F 100% 29.78 in 10.0 mi East 3.5 mph - N/A   Overcast
7:56 AM 28.0 °F - 28.0 °F 100% 29.78 in 10.0 mi Calm Calm - N/A   Overcast
8:36 AM 28.4 °F - 28.4 °F 100% 29.78 in 7.0 mi Calm Calm - 0.00 in   Overcast
8:56 AM 28.0 °F 22.8 °F 28.0 °F 100% 29.78 in 10.0 mi ESE 4.6 mph - 0.00 in   Overcast
9:40 AM 28.4 °F - 28.4 °F 100% 29.75 in 10.0 mi Calm Calm - N/A   Overcast
9:56 AM 29.1 °F - 29.1 °F 100% 29.75 in 10.0 mi Calm Calm - N/A   Overcast
10:56 AM 30.0 °F 26.5 °F 30.0 °F 100% 29.73 in 10.0 mi ENE 3.5 mph - N/A   Overcast
11:23 AM 30.2 °F - 30.2 °F 100% 29.71 in 10.0 mi Calm Calm - N/A   Overcast
11:56 AM 30.2 °F - 30.2 °F 100% 29.68 in 10.0 mi Calm Calm - N/A   Overcast
12:56 PM 32.0 °F - 32.0 °F 100% 29.65 in 10.0 mi Calm Calm - N/A   Mostly Cloudy
1:56 PM 32.9 °F - 32.9 °F 100% 29.61 in 10.0 mi Calm Calm - N/A   Mostly Cloudy
2:56 PM 33.8 °F - 33.8 °F 100% 29.57 in 10.0 mi Calm Calm - N/A   Overcast
3:22 PM 33.8 °F - 33.8 °F 100% 29.55 in 9.0 mi Calm Calm - 0.00 in   Overcast
3:56 PM 32.9 °F - 32.9 °F 100% 29.53 in 8.0 mi Calm Calm - 0.00 in Rain Light Rain
4:56 PM 34.0 °F 31.0 °F 34.0 °F 100% 29.49 in 10.0 mi East 3.5 mph - 0.01 in   Overcast
5:56 PM 35.6 °F 31.7 °F 35.6 °F 100% 29.44 in 10.0 mi ESE 4.6 mph - N/A   Overcast
6:56 PM 36.9 °F 30.1 °F 34.9 °F 93% 29.41 in 9.0 mi ENE 9.2 mph - 0.00 in   Overcast
7:56 PM 36.9 °F 28.7 °F 34.9 °F 93% 29.36 in 10.0 mi ENE 12.7 mph - 0.00 in   Overcast
8:41 PM 37.4 °F 30.3 °F 35.6 °F 93% 29.33 in 8.0 mi East 10.4 mph - 0.01 in   Overcast
8:56 PM 37.4 °F 30.8 °F 35.6 °F 93% 29.33 in 8.0 mi East 9.2 mph - N/A   Overcast
9:17 PM 37.4 °F 29.8 °F 35.6 °F 93% 29.32 in 10.0 mi ENE 11.5 mph - 0.00 in   Overcast
9:56 PM 34.9 °F 32.0 °F 34.9 °F 100% 29.31 in 10.0 mi SSE 3.5 mph - 0.00 in   Overcast
10:56 PM 34.9 °F - 34.9 °F 100% 29.29 in 10.0 mi Calm Calm - 0.00 in   Overcast
11:56 PM 33.8 °F - 33.8 °F 100% 29.29 in 10.0 mi Calm Calm - N/A Rain Light Rain